| time (UTC) | temp F | wind direction | speed knots | gust knots | rain 1hr in | rain 24hr in | rain mn in | humidity % | barometer mb |
| 20260504035530 | 57 | 240 | 0.0 | 3.5 | 0.00 | 0.00 | 0.00 | 68 | 1005.9 |
| 20260504035030 | 57 | 275 | 0.9 | 4.3 | 0.00 | 0.00 | 0.00 | 67 | 1006.0 |
| 20260504034548 | 57 | 216 | 0.0 | 4.3 | 0.00 | 0.00 | 0.00 | 67 | 1005.9 |
| 20260504034030 | 57 | 210 | 0.9 | 4.3 | 0.00 | 0.00 | 0.00 | 66 | 1005.8 |
| 20260504033537 | 57 | 0 | 0.9 | 4.3 | 0.00 | 0.00 | 0.00 | 66 | 1006.0 |
| 20260504033047 | 57 | 0 | 0.0 | 3.5 | 0.00 | 0.00 | 0.00 | 66 | 1006.0 |
| 20260504032530 | 57 | 221 | 0.9 | 4.3 | 0.00 | 0.00 | 0.00 | 66 | 1006.1 |
| 20260504032029 | 57 | 203 | 0.9 | 4.3 | 0.00 | 0.00 | 0.00 | 66 | 1006.1 |
| 20260504031603 | 57 | 196 | 0.9 | 3.5 | 0.00 | 0.00 | 0.00 | 66 | 1006.1 |
| 20260504031032 | 57 | 218 | 0.9 | 3.5 | 0.00 | 0.00 | 0.00 | 66 | 1006.2 |
| 20260504030529 | 58 | 222 | 0.9 | 4.3 | 0.00 | 0.00 | 0.00 | 65 | 1006.1 |
| 20260504030046 | 57 | 223 | 0.9 | 4.3 | 0.00 | 0.00 | 0.00 | 65 | 1006.1 |
| 20260504025535 | 57 | 194 | 0.9 | 3.5 | 0.00 | 0.00 | 0.00 | 65 | 1006.1 |
| 20260504025029 | 57 | 0 | 0.9 | 3.5 | 0.00 | 0.00 | 0.00 | 65 | 1006.2 |
| 20260504024543 | 57 | 0 | 0.0 | 3.5 | 0.00 | 0.00 | 0.00 | 65 | 1006.1 |
| 20260504024031 | 57 | 219 | 0.0 | 3.5 | 0.00 | 0.00 | 0.00 | 65 | 1006.0 |
| 20260504023530 | 57 | 219 | 0.9 | 3.5 | 0.00 | 0.00 | 0.00 | 65 | 1006.1 |
| 20260504023041 | 56 | 0 | 0.0 | 3.5 | 0.00 | 0.00 | 0.00 | 66 | 1006.2 |
| 20260504022531 | 56 | 0 | 0.9 | 3.5 | 0.00 | 0.00 | 0.00 | 66 | 1006.1 |
| 20260504022030 | 56 | 0 | 0.0 | 1.7 | 0.00 | 0.00 | 0.00 | 66 | 1006.1 |
| 20260504021546 | 57 | 218 | 0.0 | 1.7 | 0.00 | 0.00 | 0.00 | 67 | 1006.1 |
| 20260504021029 | 57 | 0 | 0.0 | 1.7 | 0.00 | 0.00 | 0.00 | 66 | 1006.0 |
| 20260504020529 | 57 | 0 | 0.0 | 2.6 | 0.00 | 0.00 | 0.00 | 65 | 1006.1 |
| 20260504020045 | 57 | 0 | 0.0 | 2.6 | 0.00 | 0.00 | 0.00 | 64 | 1006.1 |
| 20260504015530 | 57 | 0 | 0.0 | 3.5 | 0.00 | 0.00 | 0.00 | 64 | 1006.0 |
| 20260504015031 | 57 | 0 | 0.0 | 3.5 | 0.00 | 0.00 | 0.00 | 64 | 1006.0 |
| 20260504014545 | 58 | 0 | 0.9 | 1.7 | 0.00 | 0.00 | 0.00 | 66 | 1006.0 |
| 20260504014030 | 58 | 0 | 0.0 | 1.7 | 0.00 | 0.00 | 0.00 | 62 | 1005.8 |
| 20260504013529 | 59 | 0 | 0.0 | 0.0 | 0.00 | 0.00 | 0.00 | 62 | 1005.9 |
| 20260504013044 | 60 | 0 | 0.0 | 0.9 | 0.00 | 0.00 | 0.00 | 61 | 1005.8 |
| 20260504012529 | 60 | 0 | 0.0 | 0.9 | 0.00 | 0.00 | 0.00 | 60 | 1005.7 |
| 20260504012029 | 61 | 0 | 0.0 | 0.9 | 0.00 | 0.00 | 0.00 | 59 | 1005.7 |
| 20260504011544 | 62 | 0 | 0.0 | 0.9 | 0.00 | 0.00 | 0.00 | 57 | 1005.6 |
| 20260504011030 | 62 | 0 | 0.0 | 0.9 | 0.00 | 0.00 | 0.00 | 56 | 1005.7 |
| 20260504010532 | 63 | 0 | 0.0 | 0.0 | 0.00 | 0.00 | 0.00 | 55 | 1005.6 |
| 20260504010047 | 63 | 0 | 0.0 | 0.0 | 0.00 | 0.00 | 0.00 | 53 | 1005.5 |
| 20260504005530 | 64 | 0 | 0.0 | 0.9 | 0.00 | 0.00 | 0.00 | 53 | 1005.5 |
| 20260504005030 | 64 | 0 | 0.0 | 0.9 | 0.00 | 0.00 | 0.00 | 52 | 1005.4 |
| 20260504004545 | 65 | 250 | 0.0 | 3.5 | 0.00 | 0.00 | 0.00 | 51 | 1005.5 |
| 20260504004029 | 65 | 0 | 0.0 | 3.5 | 0.00 | 0.00 | 0.00 | 51 | 1005.6 |
| 20260504003530 | 65 | 252 | 0.9 | 3.5 | 0.00 | 0.00 | 0.00 | 50 | 1005.5 |
| 20260504003047 | 66 | 0 | 0.9 | 5.2 | 0.00 | 0.00 | 0.00 | 50 | 1005.5 |
| 20260504002529 | 66 | 260 | 0.0 | 5.2 | 0.00 | 0.00 | 0.00 | 50 | 1005.5 |
| 20260504002029 | 67 | 196 | 1.7 | 5.2 | 0.00 | 0.00 | 0.00 | 49 | 1005.7 |
| 20260504001559 | 67 | 0 | 0.9 | 5.2 | 0.00 | 0.00 | 0.00 | 49 | 1005.6 |
| 20260504001030 | 67 | 263 | 0.9 | 5.2 | 0.00 | 0.00 | 0.00 | 49 | 1005.6 |
| 20260504000530 | 68 | 0 | 0.9 | 5.2 | 0.00 | 0.00 | 0.00 | 48 | 1005.8 |
| 20260504000045 | 68 | 252 | 0.9 | 7.8 | 0.00 | 0.00 | 0.00 | 48 | 1005.8 |
| 20260503235530 | 68 | 228 | 0.9 | 7.8 | 0.00 | 0.00 | 0.00 | 48 | 1005.7 |
| 20260503235030 | 68 | 215 | 1.7 | 8.7 | 0.00 | 0.00 | 0.00 | 47 | 1005.8 |
| 20260503234539 | 68 | 252 | 1.7 | 9.6 | 0.00 | 0.00 | 0.00 | 48 | 1005.7 |
| 20260503234033 | 68 | 261 | 3.5 | 9.6 | 0.00 | 0.00 | 0.00 | 48 | 1005.5 |
| 20260503233531 | 68 | 309 | 1.7 | 9.6 | 0.00 | 0.00 | 0.00 | 48 | 1005.6 |
| 20260503233045 | 68 | 202 | 2.6 | 9.6 | 0.00 | 0.00 | 0.00 | 48 | 1005.6 |
| 20260503232532 | 68 | 217 | 2.6 | 9.6 | 0.00 | 0.00 | 0.00 | 48 | 1005.6 |
| 20260503232029 | 68 | 252 | 3.5 | 9.6 | 0.00 | 0.00 | 0.00 | 48 | 1005.6 |
| 20260503231554 | 68 | 259 | 4.3 | 9.6 | 0.00 | 0.00 | 0.00 | 47 | 1005.7 |
| 20260503231030 | 68 | 221 | 3.5 | 12.2 | 0.00 | 0.00 | 0.00 | 47 | 1005.8 |
| 20260503230531 | 68 | 200 | 4.3 | 12.2 | 0.00 | 0.00 | 0.00 | 47 | 1005.7 |
| 20260503230045 | 68 | 216 | 2.6 | 9.6 | 0.00 | 0.00 | 0.00 | 46 | 1006.0 |
| 20260503225533 | 68 | 240 | 3.5 | 9.6 | 0.00 | 0.00 | 0.00 | 47 | 1005.9 |
| 20260503225029 | 68 | 298 | 3.5 | 12.2 | 0.00 | 0.00 | 0.00 | 46 | 1005.9 |
| 20260503224545 | 68 | 247 | 2.6 | 12.2 | 0.00 | 0.00 | 0.00 | 46 | 1006.1 |
| 20260503224030 | 68 | 219 | 5.2 | 13.9 | 0.00 | 0.00 | 0.00 | 46 | 1006.1 |
| 20260503223529 | 68 | 222 | 3.5 | 13.9 | 0.00 | 0.00 | 0.00 | 45 | 1006.1 |
| 20260503223043 | 68 | 205 | 4.3 | 13.0 | 0.00 | 0.00 | 0.00 | 45 | 1006.2 |
| 20260503222529 | 68 | 219 | 3.5 | 11.3 | 0.00 | 0.00 | 0.00 | 46 | 1006.3 |
| 20260503222029 | 69 | 233 | 4.3 | 11.3 | 0.00 | 0.00 | 0.00 | 46 | 1006.2 |
| 20260503221547 | 68 | 175 | 3.5 | 14.8 | 0.00 | 0.00 | 0.00 | 46 | 1006.1 |
| 20260503221031 | 68 | 273 | 5.2 | 14.8 | 0.00 | 0.00 | 0.00 | 44 | 1006.2 |
| 20260503220533 | 68 | 241 | 5.2 | 16.5 | 0.00 | 0.00 | 0.00 | 44 | 1006.2 |
| 20260503220045 | 68 | 232 | 7.0 | 16.5 | 0.00 | 0.00 | 0.00 | 44 | 1006.1 |
| 20260503215530 | 69 | 194 | 3.5 | 15.6 | 0.00 | 0.00 | 0.00 | 45 | 1006.2 |
| 20260503215029 | 68 | 342 | 7.0 | 15.6 | 0.00 | 0.00 | 0.00 | 44 | 1006.1 |
| 20260503214552 | 69 | 329 | 3.5 | 12.2 | 0.00 | 0.00 | 0.00 | 46 | 1006.2 |
| 20260503214029 | 68 | 227 | 3.5 | 13.9 | 0.00 | 0.00 | 0.00 | 47 | 1006.1 |
| 20260503213529 | 68 | 239 | 5.2 | 15.6 | 0.00 | 0.00 | 0.00 | 46 | 1006.2 |
| 20260503213106 | 68 | 209 | 6.1 | 15.6 | 0.00 | 0.00 | 0.00 | 46 | 1006.3 |
| 20260503212529 | 68 | 232 | 7.8 | 15.6 | 0.00 | 0.00 | 0.00 | 47 | 1006.4 |
| 20260503212029 | 67 | 275 | 5.2 | 14.8 | 0.00 | 0.00 | 0.00 | 47 | 1006.4 |
| 20260503211603 | 67 | 197 | 6.1 | 14.8 | 0.00 | 0.00 | 0.00 | 47 | 1006.5 |
| 20260503211032 | 67 | 217 | 6.1 | 14.8 | 0.00 | 0.00 | 0.00 | 46 | 1006.7 |
| 20260503210532 | 67 | 222 | 6.1 | 14.8 | 0.00 | 0.00 | 0.00 | 47 | 1006.7 |
| 20260503210047 | 67 | 250 | 6.1 | 12.2 | 0.00 | 0.00 | 0.00 | 47 | 1007.0 |
| 20260503205530 | 66 | 227 | 5.2 | 15.6 | 0.00 | 0.00 | 0.00 | 48 | 1007.0 |
| 20260503205034 | 65 | 248 | 7.0 | 22.6 | 0.00 | 0.00 | 0.00 | 50 | 1007.1 |
| 20260503204601 | 65 | 269 | 7.8 | 22.6 | 0.00 | 0.00 | 0.00 | 49 | 1007.1 |
| 20260503204029 | 65 | 198 | 4.3 | 23.5 | 0.00 | 0.00 | 0.00 | 49 | 1007.3 |
| 20260503203530 | 65 | 202 | 8.7 | 23.5 | 0.00 | 0.00 | 0.00 | 47 | 1007.4 |
| 20260503203049 | 65 | 173 | 9.6 | 20.9 | 0.00 | 0.00 | 0.00 | 46 | 1007.5 |
| 20260503202529 | 66 | 254 | 8.7 | 20.9 | 0.00 | 0.00 | 0.00 | 47 | 1007.5 |
| 20260503202029 | 65 | 200 | 6.1 | 23.5 | 0.00 | 0.00 | 0.00 | 47 | 1007.7 |
| 20260503201542 | 65 | 191 | 10.4 | 23.5 | 0.00 | 0.00 | 0.00 | 46 | 1007.7 |
| 20260503201030 | 66 | 300 | 7.8 | 19.1 | 0.00 | 0.00 | 0.00 | 47 | 1007.8 |
| 20260503200530 | 65 | 244 | 6.1 | 21.7 | 0.00 | 0.00 | 0.00 | 48 | 1007.8 |
| 20260503200041 | 65 | 207 | 7.8 | 21.7 | 0.00 | 0.00 | 0.00 | 48 | 1007.9 |
| 20260503195530 | 64 | 226 | 10.4 | 20.9 | 0.00 | 0.00 | 0.00 | 51 | 1008.1 |
| 20260503195029 | 64 | 193 | 7.0 | 20.9 | 0.00 | 0.00 | 0.00 | 53 | 1008.3 |
| 20260503194546 | 63 | 198 | 7.8 | 20.9 | 0.00 | 0.00 | 0.00 | 53 | 1008.3 |
| 20260503194030 | 63 | 215 | 9.6 | 20.9 | 0.00 | 0.00 | 0.00 | 54 | 1008.3 |
| 20260503193532 | 62 | 220 | 6.1 | 20.0 | 0.00 | 0.00 | 0.00 | 55 | 1008.5 |
| 20260503193046 | 62 | 221 | 8.7 | 26.1 | 0.00 | 0.00 | 0.00 | 55 | 1008.4 |
| 20260503192529 | 62 | 188 | 11.3 | 26.1 | 0.00 | 0.00 | 0.00 | 55 | 1008.8 |
| 20260503192029 | 62 | 223 | 10.4 | 18.2 | 0.00 | 0.00 | 0.00 | 54 | 1008.9 |
| 20260503191557 | 63 | 163 | 7.0 | 19.1 | 0.00 | 0.00 | 0.00 | 54 | 1009.0 |
| 20260503191030 | 63 | 180 | 7.8 | 20.9 | 0.00 | 0.00 | 0.00 | 56 | 1009.2 |
| 20260503190530 | 62 | 173 | 7.0 | 20.9 | 0.00 | 0.00 | 0.00 | 53 | 1009.1 |
| 20260503190049 | 62 | 200 | 7.0 | 24.3 | 0.00 | 0.00 | 0.00 | 53 | 1009.1 |
| 20260503185534 | 62 | 280 | 8.7 | 24.3 | 0.00 | 0.00 | 0.00 | 52 | 1009.0 |
| 20260503185034 | 62 | 198 | 8.7 | 23.5 | 0.00 | 0.00 | 0.00 | 52 | 1008.8 |
| 20260503184607 | 62 | 213 | 9.6 | 23.5 | 0.00 | 0.00 | 0.00 | 50 | 1008.7 |
| 20260503184030 | 62 | 266 | 7.8 | 20.9 | 0.00 | 0.00 | 0.00 | 48 | 1008.8 |
| 20260503183529 | 62 | 194 | 6.1 | 20.0 | 0.00 | 0.00 | 0.00 | 52 | 1008.7 |
| 20260503183052 | 61 | 189 | 9.6 | 20.0 | 0.00 | 0.00 | 0.00 | 50 | 1008.8 |
| 20260503182529 | 61 | 204 | 10.4 | 20.0 | 0.00 | 0.00 | 0.00 | 49 | 1009.0 |
| 20260503182030 | 61 | 202 | 7.0 | 19.1 | 0.00 | 0.00 | 0.00 | 50 | 1009.2 |
| 20260503181547 | 61 | 227 | 6.1 | 22.6 | 0.00 | 0.00 | 0.00 | 50 | 1009.0 |
| 20260503181033 | 61 | 186 | 7.0 | 22.6 | 0.00 | 0.00 | 0.00 | 49 | 1009.1 |
| 20260503180530 | 61 | 204 | 7.0 | 17.4 | 0.00 | 0.00 | 0.00 | 50 | 1009.1 |
| 20260503180045 | 61 | 180 | 7.8 | 17.4 | 0.00 | 0.00 | 0.00 | 52 | 1009.2 |
| 20260503175529 | 61 | 198 | 6.1 | 23.5 | 0.00 | 0.00 | 0.00 | 52 | 1009.3 |
| 20260503175032 | 61 | 225 | 7.8 | 23.5 | 0.00 | 0.00 | 0.00 | 53 | 1009.3 |
| 20260503174555 | 60 | 234 | 8.7 | 20.9 | 0.00 | 0.00 | 0.00 | 53 | 1009.4 |
| 20260503174029 | 60 | 167 | 7.8 | 20.9 | 0.00 | 0.00 | 0.00 | 54 | 1009.4 |
| 20260503173529 | 60 | 223 | 6.1 | 20.9 | 0.00 | 0.00 | 0.00 | 56 | 1009.6 |
| 20260503173040 | 59 | 188 | 9.6 | 20.9 | 0.00 | 0.00 | 0.00 | 58 | 1009.6 |
| 20260503172528 | 59 | 201 | 6.1 | 22.6 | 0.00 | 0.00 | 0.00 | 60 | 1009.7 |
| 20260503172029 | 58 | 173 | 7.8 | 22.6 | 0.00 | 0.00 | 0.00 | 60 | 1010.2 |
| 20260503171547 | 58 | 235 | 7.0 | 20.9 | 0.00 | 0.00 | 0.00 | 61 | 1010.2 |
| 20260503171032 | 57 | 188 | 8.7 | 20.9 | 0.00 | 0.00 | 0.00 | 63 | 1010.6 |
| 20260503170530 | 57 | 200 | 6.1 | 13.9 | 0.00 | 0.00 | 0.00 | 65 | 1010.7 |
| 20260503150535 | 54 | 213 | 8.7 | 22.6 | 0.00 | 0.00 | 0.00 | 62 | 1013.0 |
| 20260503131030 | 51 | 179 | 6.1 | 13.9 | 0.00 | 0.00 | 0.00 | 60 | 1013.8 |
| 20260503130529 | 50 | 207 | 7.0 | 13.0 | 0.00 | 0.00 | 0.00 | 60 | 1013.7 |
| 20260503110533 | 47 | 221 | 3.5 | 11.3 | 0.00 | 0.00 | 0.00 | 62 | 1013.2 |
| 20260503081556 | 47 | 219 | 4.3 | 12.2 | 0.00 | 0.00 | 0.00 | 58 | 1014.1 |
| 20260503081031 | 47 | 187 | 4.3 | 8.7 | 0.00 | 0.00 | 0.00 | 58 | 1014.1 |
| 20260503080530 | 47 | 208 | 4.3 | 8.7 | 0.00 | 0.00 | 0.00 | 58 | 1014.2 |
| 20260503072532 | 46 | 198 | 3.5 | 7.8 | 0.00 | 0.00 | 0.00 | 59 | 1014.3 |
| 20260503072029 | 46 | 217 | 2.6 | 9.6 | 0.00 | 0.00 | 0.00 | 59 | 1014.3 |
| 20260503071604 | 46 | 203 | 1.7 | 9.6 | 0.00 | 0.00 | 0.00 | 59 | 1014.3 |
| 20260503071029 | 46 | 234 | 3.5 | 9.6 | 0.00 | 0.00 | 0.00 | 59 | 1014.5 |
| 20260503070532 | 46 | 196 | 3.5 | 7.0 | 0.00 | 0.00 | 0.00 | 59 | 1014.6 |
| 20260503070110 | 46 | 205 | 2.6 | 8.7 | 0.00 | 0.00 | 0.00 | 60 | 1014.5 |
| 20260503060105 | 45 | 192 | 1.7 | 5.2 | 0.00 | 0.00 | 0.00 | 62 | 1015.0 |
| 20260503055028 | 45 | 206 | 2.6 | 6.1 | 0.00 | 0.00 | 0.00 | 62 | 1015.1 |
| 20260503054555 | 44 | 228 | 1.7 | 5.2 | 0.00 | 0.00 | 0.00 | 62 | 1015.2 |
| 20260503054029 | 44 | 222 | 0.9 | 5.2 | 0.00 | 0.00 | 0.00 | 62 | 1015.2 |
| 20260503053530 | 44 | 199 | 1.7 | 5.2 | 0.00 | 0.00 | 0.00 | 62 | 1015.2 |
| 20260503053045 | 44 | 226 | 1.7 | 7.0 | 0.00 | 0.00 | 0.00 | 63 | 1015.2 |
| 20260503052530 | 44 | 241 | 0.9 | 7.0 | 0.00 | 0.00 | 0.00 | 62 | 1015.2 |
| 20260503052030 | 44 | 256 | 1.7 | 5.2 | 0.00 | 0.00 | 0.00 | 63 | 1015.2 |
| 20260503051550 | 44 | 193 | 1.7 | 5.2 | 0.00 | 0.00 | 0.00 | 63 | 1015.3 |
| 20260503051029 | 44 | 232 | 1.7 | 5.2 | 0.00 | 0.00 | 0.00 | 63 | 1015.4 |
| 20260503050529 | 45 | 182 | 0.0 | 5.2 | 0.00 | 0.00 | 0.00 | 62 | 1015.5 |
| 20260503050043 | 45 | 205 | 1.7 | 5.2 | 0.00 | 0.00 | 0.00 | 62 | 1015.5 |
| 20260503045530 | 45 | 221 | 1.7 | 5.2 | 0.00 | 0.00 | 0.00 | 62 | 1015.5 |
| 20260503045030 | 45 | 238 | 0.9 | 5.2 | 0.00 | 0.00 | 0.00 | 62 | 1015.6 |
| 20260503044540 | 45 | 212 | 0.9 | 5.2 | 0.00 | 0.00 | 0.00 | 61 | 1015.6 |
| 20260503044028 | 45 | 227 | 1.7 | 5.2 | 0.00 | 0.00 | 0.00 | 61 | 1015.6 |
| 20260503043529 | 45 | 223 | 1.7 | 5.2 | 0.00 | 0.00 | 0.00 | 62 | 1015.6 |
| 20260503043046 | 45 | 231 | 1.7 | 5.2 | 0.00 | 0.00 | 0.00 | 62 | 1015.5 |
| 20260503042532 | 45 | 200 | 1.7 | 3.5 | 0.00 | 0.00 | 0.00 | 62 | 1015.6 |
| 20260503042032 | 45 | 234 | 1.7 | 4.3 | 0.00 | 0.00 | 0.00 | 62 | 1015.7 |
| 20260503041546 | 45 | 209 | 1.7 | 4.3 | 0.00 | 0.00 | 0.00 | 63 | 1015.8 |
| 20260503041030 | 45 | 0 | 0.9 | 4.3 | 0.00 | 0.00 | 0.00 | 62 | 1015.7 |
| 20260503040532 | 45 | 236 | 0.9 | 3.5 | 0.00 | 0.00 | 0.00 | 62 | 1015.7 |
| 20260503040046 | 45 | 251 | 0.9 | 3.5 | 0.00 | 0.00 | 0.00 | 63 | 1015.8 |